Home > Weather > Liberia > Past weeks

Flag for Costa Rica Past Weather in Liberia, Costa Rica — Yesterday and Last 2 Weeks

Now
81 °F

Overcast.


Feels Like: 85 °F
Forecast: N/A
Wind: 6 mph from Northeast

Location: Liberia/Tomas Guard

Current Time: Jun 25, 2016 at 3:20:34 PM

Latest Report: Jun 25, 2016 at 3:00 PM


Visibility: N/A

Pressure: 29.82 "Hg

Humidity: 74%

Dew Point: 72 °F

Location of LiberiaLocation

Past Weather in Liberia — Graph

°F

Liberia Temperature Yesterday

Maximum temperature yesterday: 86 °F (at 12:00 PM)
Minimum temperature yesterday: 75 °F (at 11:00 PM)
Average temperature yesterday: 81 °F

High & Low Weather Summary for the Past Weeks

 TemperatureHumidityPressure
High91 °F (Jun 19, 2:00 PM)100% (Jun 23, 6:00 AM)30.00 "Hg (Jun 23, 6:00 AM)
Low72 °F (Jun 11, 1:00 PM)49% (Jun 19, 2:00 PM)29.79 "Hg (Jun 19, 3:00 PM)
Average80 °F78%29.90 "Hg
* Reported Jun 10 2:00 PM — Jun 25 2:00 PM, Liberia, Weather by CustomWeather, © 2016

Note: Actual official high and low records may vary slightly from our data, if they occured in-between our weather recording intervals... More about our weather records

Advertising

Liberia Weather History for the Previous 24 Hours

Scroll right to see more
 ConditionsComfort  
Time TempWeatherWind HumidityBarometerVisibility
2:00 PM
Sat, Jun 25
79 °FOvercast.3 mph84%29.83 "HgN/A
1:00 PM79 °FLight rain. Broken clouds.8 mph79%29.83 "HgN/A
12:00 PM79 °FBroken clouds.10 mph79%29.84 "HgN/A
11:00 AM84 °FScattered showers. Broken clouds.13 mph62%29.88 "HgN/A
10:00 AM86 °FBroken clouds.7 mph62%29.88 "HgN/A
9:00 AM84 °FPartly sunny.8 mph70%29.87 "HgN/A
8:00 AM79 °FScattered clouds.6 mph84%29.87 "HgN/A
7:00 AM77 °FScattered clouds.5 mph89%29.85 "HgN/A
6:00 AM73 °FPartly sunny.No wind94%29.84 "HgN/A
12:00 AM75 °FPassing clouds.6 mph89%29.92 "HgN/A
11:00 PM
Fri, Jun 24
75 °FPassing clouds.8 mph89%29.90 "HgN/A
10:00 PM77 °FPassing clouds.5 mph83%29.90 "HgN/A
9:00 PM77 °FPassing clouds.5 mph83%29.90 "HgN/A
8:00 PM77 °FPassing clouds.6 mph83%29.88 "HgN/A
7:00 PM79 °FPassing clouds.6 mph79%29.86 "HgN/A
6:00 PM79 °FBroken clouds.7 mph79%29.83 "HgN/A
5:00 PM79 °FBroken clouds.9 mph74%29.83 "HgN/A
4:00 PM84 °FPartly sunny.6 mph66%29.81 "HgN/A
3:00 PM84 °FPartly sunny.7 mph66%29.82 "HgN/A
Weather by CustomWeather, © 2016

See weather overviewHow to use our weather pages